Location: Croydon
(51.3762°N, 0.0982°W)
Time: 12:46:26
(UTC+00:00)

Envisat - Pass Details

Date: 25 February 2019
Orbit: 764 x 766 km, 98.2° (Epoch: 24 March)

Event Time Altitude Azimuth Distance (km) Brightness Sun altitude
Rises 19:06:38 0° 184° (S) 3,222 6.2 -15.3°
Reaches altitude 10° 19:09:02 10° 191° (SSW) 2,300 5.5 -15.7°
Maximum altitude 19:13:50 42° 263° (W) 1,085 4.3 -16.4°
Drops below altitude 10° 19:18:41 10° 334° (NNW) 2,316 5.9 -17.2°
Sets 19:21:08 0° 341° (NNW) 3,247 6.6 -17.5°
